TimeMDT,TemperatureF,Dew PointF,Humidity,Sea Level PressureIn,VisibilityMPH,Wind Direction,Wind SpeedMPH,Gust SpeedMPH,PrecipitationIn,Events,Conditions,WindDirDegrees,DateUTC
12:15 AM,56.8,24.3,28,29.66,10.0,SW,4.6,-,N/A,,Clear,220,2012-10-21 06:15:00
12:35 AM,53.4,24.6,33,29.66,10.0,SSW,3.5,-,N/A,,Clear,210,2012-10-21 06:35:00
12:55 AM,46.0,24.1,42,29.66,10.0,Calm,Calm,-,N/A,,Clear,0,2012-10-21 06:55:00
1:15 AM,47.8,24.6,40,29.66,10.0,Calm,Calm,-,N/A,,Clear,0,2012-10-21 07:15:00
1:35 AM,48.0,25.2,41,29.66,10.0,Calm,Calm,-,N/A,,Clear,0,2012-10-21 07:35:00
1:55 AM,43.3,23.9,46,29.67,10.0,Calm,Calm,-,N/A,,Clear,0,2012-10-21 07:55:00
2:15 AM,43.0,24.1,47,29.66,10.0,Calm,Calm,-,N/A,,Clear,0,2012-10-21 08:15:00
2:35 AM,40.8,23.4,50,29.66,10.0,North,4.6,-,N/A,,Clear,360,2012-10-21 08:35:00
2:55 AM,39.7,24.8,55,29.67,10.0,Calm,Calm,-,N/A,,Clear,0,2012-10-21 08:55:00
3:15 AM,38.8,24.1,55,29.67,10.0,Calm,Calm,-,N/A,,Clear,0,2012-10-21 09:15:00
3:35 AM,39.0,24.8,57,29.66,10.0,Calm,Calm,-,N/A,,Clear,0,2012-10-21 09:35:00
3:55 AM,39.4,24.3,55,29.66,10.0,Calm,Calm,-,N/A,,Clear,0,2012-10-21 09:55:00
4:15 AM,37.9,24.1,57,29.67,10.0,Calm,Calm,-,N/A,,Clear,0,2012-10-21 10:15:00
4:35 AM,36.7,24.1,60,29.68,10.0,WNW,4.6,-,N/A,,Clear,290,2012-10-21 10:35:00
4:55 AM,34.5,23.9,65,29.69,10.0,Calm,Calm,-,N/A,,Clear,0,2012-10-21 10:55:00
5:15 AM,36.7,25.2,63,29.69,10.0,South,3.5,-,N/A,,Clear,190,2012-10-21 11:15:00
5:35 AM,34.9,24.8,67,29.70,10.0,Calm,Calm,-,N/A,,Clear,0,2012-10-21 11:35:00
5:55 AM,36.7,24.4,61,29.71,10.0,Calm,Calm,-,N/A,,Clear,0,2012-10-21 11:55:00
6:35 AM,51.4,27.1,39,29.73,10.0,ENE,5.8,-,N/A,,Clear,60,2012-10-21 12:35:00
6:55 AM,50.2,28.4,43,29.74,10.0,NNE,3.5,-,N/A,,Clear,20,2012-10-21 12:55:00
7:15 AM,49.5,30.2,48,29.76,10.0,North,11.5,-,N/A,,Clear,350,2012-10-21 13:15:00
7:35 AM,49.6,31.8,50,29.77,10.0,North,9.2,18.4,N/A,,Clear,360,2012-10-21 13:35:00
7:55 AM,50.9,33.8,52,29.78,10.0,NNE,5.8,-,N/A,,Clear,30,2012-10-21 13:55:00
8:35 AM,53.2,37.4,55,29.79,10.0,North,16.1,21.9,N/A,,Clear,10,2012-10-21 14:35:00
9:15 AM,56.1,39.4,53,29.80,10.0,NNE,21.9,-,N/A,,Clear,20,2012-10-21 15:15:00
9:35 AM,57.9,39.4,50,29.80,10.0,North,23.0,26.5,N/A,,Clear,10,2012-10-21 15:35:00
9:55 AM,58.5,39.6,49,29.81,10.0,NNE,20.7,25.3,N/A,,Clear,20,2012-10-21 15:55:00
10:15 AM,59.7,39.7,48,29.82,10.0,NNE,17.3,-,N/A,,Clear,20,2012-10-21 16:15:00
10:55 AM,62.4,39.9,44,29.81,10.0,NNE,16.1,-,N/A,,Clear,20,2012-10-21 16:55:00
11:15 AM,63.3,39.6,42,29.81,10.0,NNE,19.6,24.2,N/A,,Clear,30,2012-10-21 17:15:00
12:55 PM,67.6,38.8,35,29.82,10.0,North,13.8,20.7,N/A,,Clear,10,2012-10-21 18:55:00
1:55 PM,68.9,39.0,34,29.80,10.0,NNE,19.6,23.0,N/A,,Clear,30,2012-10-21 19:55:00
2:15 PM,69.3,39.0,33,29.79,10.0,NE,13.8,25.3,N/A,,Clear,40,2012-10-21 20:15:00
2:35 PM,69.8,39.0,33,29.79,10.0,NNE,13.8,23.0,N/A,,Clear,30,2012-10-21 20:35:00
2:55 PM,69.6,38.5,32,29.79,10.0,NE,13.8,20.7,N/A,,Clear,50,2012-10-21 20:55:00
3:15 PM,69.8,38.5,32,29.79,10.0,NNE,16.1,20.7,N/A,,Clear,30,2012-10-21 21:15:00
3:35 PM,70.0,38.5,32,29.79,10.0,NE,17.3,21.9,N/A,,Clear,40,2012-10-21 21:35:00
3:55 PM,70.0,38.7,32,29.79,10.0,NE,16.1,25.3,N/A,,Clear,40,2012-10-21 21:55:00
4:15 PM,68.9,38.5,33,29.80,10.0,NE,16.1,23.0,N/A,,Clear,50,2012-10-21 22:15:00
4:35 PM,68.2,38.1,33,29.81,10.0,ENE,16.1,-,N/A,,Clear,70,2012-10-21 22:35:00
4:55 PM,67.5,38.1,34,29.81,10.0,ENE,15.0,-,N/A,,Clear,60,2012-10-21 22:55:00
5:15 PM,66.6,37.8,35,29.81,10.0,NE,15.0,-,N/A,,Clear,50,2012-10-21 23:15:00
5:35 PM,65.1,38.3,37,29.82,10.0,ENE,13.8,-,N/A,,Clear,60,2012-10-21 23:35:00
5:55 PM,63.5,38.3,39,29.82,10.0,ENE,11.5,-,N/A,,Clear,60,2012-10-21 23:55:00
6:15 PM,61.2,37.9,42,29.83,10.0,NE,8.1,-,N/A,,Clear,50,2012-10-22 00:15:00
6:35 PM,58.5,37.8,46,29.84,10.0,NE,9.2,-,N/A,,Clear,50,2012-10-22 00:35:00
6:55 PM,56.3,37.8,50,29.84,10.0,NE,9.2,-,N/A,,Clear,40,2012-10-22 00:55:00
7:15 PM,56.3,37.8,50,29.85,10.0,NE,10.4,-,N/A,,Clear,40,2012-10-22 01:15:00
7:35 PM,56.1,37.8,50,29.86,10.0,NE,10.4,-,N/A,,Clear,50,2012-10-22 01:35:00
7:55 PM,55.6,38.3,52,29.86,10.0,NE,11.5,-,N/A,,Clear,50,2012-10-22 01:55:00
8:15 PM,55.4,38.3,53,29.87,10.0,NE,11.5,-,N/A,,Clear,50,2012-10-22 02:15:00
8:35 PM,54.0,38.3,55,29.88,10.0,NE,11.5,-,N/A,,Clear,50,2012-10-22 02:35:00
9:35 PM,51.1,38.7,63,29.89,10.0,NE,9.2,-,N/A,,Clear,40,2012-10-22 03:35:00
9:55 PM,50.9,39.2,64,29.88,10.0,NNE,12.7,-,N/A,,Clear,30,2012-10-22 03:55:00
10:35 PM,50.0,39.6,67,29.89,10.0,NE,9.2,-,N/A,,Clear,40,2012-10-22 04:35:00
10:55 PM,49.8,39.7,68,29.89,10.0,NE,6.9,-,N/A,,Clear,50,2012-10-22 04:55:00
11:15 PM,47.7,39.6,73,29.90,10.0,NE,6.9,-,N/A,,Clear,50,2012-10-22 05:15:00
11:55 PM,46.9,40.1,77,29.90,10.0,NE,8.1,-,N/A,,Clear,50,2012-10-22 05:55:00